StationID,Date,MaxTemp,MinTemp,Precipitation,Snowfall,SnowDepth
"CA00220KLML","1997-09-01",64.94,,,,
"CA00220KLML","1997-09-02",64.94,,,,
"CA00220KLML","1997-09-03",61.70,58.46,,,
"CA00220KLML","1997-09-04",60.08,55.22,,,
"CA00220KLML","1997-09-05",59.18,54.68,,,
"CA00220KLML","1997-09-06",57.38,52.16,,,
"CA00220KLML","1997-09-07",58.46,54.68,,,
"CA00220KLML","1997-09-08",59.18,55.58,,,
"CA00220KLML","1997-09-09",58.64,55.22,,,
"CA00220KLML","1997-09-10",56.48,,,,
"CA00220KLML","1997-09-11",55.58,49.28,,,
"CA00220KLML","1997-09-12",52.16,48.02,,,
"CA00220KLML","1997-09-13",48.02,44.24,,,
"CA00220KLML","1997-09-14",50.54,42.80,,,
"CA00220KLML","1997-09-15",47.84,40.82,,,
"CA00220KLML","1997-09-16",46.04,43.34,,,
"CA00220KLML","1997-09-17",45.50,42.62,,,
"CA00220KLML","1997-09-19",55.04,37.94,,,
"CA00220KLML","1997-09-20",57.20,50.18,,,
"CA00220KLML","1997-09-22",56.48,32.90,,,
"CA00220KLML","1997-09-23",62.42,53.78,,,
"CA00220KLML","1997-09-24",59.54,55.76,,,
"CA00220KLML","1997-09-25",59.54,53.06,,,
"CA00220KLML","1997-09-26",56.48,33.80,,,
"CA00220KLML","1997-09-27",60.26,,,,
"CA00220KLML","1997-09-28",50.90,46.94,,,
"CA00220KLML","1997-09-29",49.28,39.02,,,
"CA00220KLML","1997-09-30",45.14,32.18,,,0.00
"CA00220KLML","1998-06-30",,,,,0.00
"CA00220KLML","1998-08-01",,,,,0.00
"CA00220KLML","1998-08-02",,,,,0.00
"CA00220KLML","1998-08-03",,,,,0.00
"CA00220KLML","1998-08-04",,,,,0.00
"CA00220KLML","1998-08-05",67.28,,,,0.00
"CA00220KLML","1998-08-06",,,,,0.00
"CA00220KLML","1998-08-07",,,,,0.00
"CA00220KLML","1998-08-08",,,,,0.00
"CA00220KLML","1998-08-09",,,,,0.00
"CA00220KLML","1998-08-10",,,,,0.00
"CA00220KLML","1998-08-11",,,,,0.00
"CA00220KLML","1998-08-12",57.92,,,,0.00
"CA00220KLML","1998-08-13",,,,,0.00
"CA00220KLML","1998-08-14",,,,,0.00
"CA00220KLML","1998-08-15",58.64,,,,0.00
"CA00220KLML","1998-08-16",,,,,0.00
"CA00220KLML","1998-08-17",,,,,0.00
"CA00220KLML","1998-08-18",63.32,,,,0.00
"CA00220KLML","1998-08-19",,,,,0.00
"CA00220KLML","1998-08-20",,,,,0.00
"CA00220KLML","1998-08-21",,,,,0.00
"CA00220KLML","1998-08-22",,,,,0.00
"CA00220KLML","1998-08-23",60.98,,,,0.00
"CA00220KLML","1998-08-24",,,,,0.00
"CA00220KLML","1998-08-25",,,,,0.00
"CA00220KLML","1998-08-26",61.16,,,,0.00
"CA00220KLML","1998-08-27",,,,,0.00
"CA00220KLML","1998-08-28",,,,,0.00
"CA00220KLML","1998-08-29",,,,,0.00
"CA00220KLML","1998-08-30",,,,,0.00
"CA00220KLML","1998-08-31",,,,,0.00
"CA00220KLML","1999-06-01",63.14,39.92,,,0.00
"CA00220KLML","1999-06-02",69.08,39.20,,,0.00
"CA00220KLML","1999-06-03",69.08,48.74,,,0.00
"CA00220KLML","1999-06-04",66.20,35.24,,,0.00
"CA00220KLML","1999-06-05",51.80,32.54,,,0.00
"CA00220KLML","1999-06-06",42.98,39.56,,,0.00
"CA00220KLML","1999-06-07",43.52,32.90,,,0.00
"CA00220KLML","1999-06-08",52.88,34.34,,,0.00
"CA00220KLML","1999-06-09",55.76,40.28,,,0.00
"CA00220KLML","1999-06-10",57.38,32.54,,,0.00
"CA00220KLML","1999-06-11",50.36,36.32,,,0.00
"CA00220KLML","1999-06-12",62.24,42.08,,,0.00
"CA00220KLML","1999-06-13",58.10,46.76,,,0.00
"CA00220KLML","1999-06-14",67.82,46.76,,,0.00
"CA00220KLML","1999-06-15",83.12,56.30,,,0.00
"CA00220KLML","1999-06-16",80.78,60.62,,,0.00
"CA00220KLML","1999-06-17",85.28,60.62,,,0.00
"CA00220KLML","1999-06-18",82.40,62.78,,,0.00
"CA00220KLML","1999-06-19",85.82,61.52,,,0.00
"CA00220KLML","1999-06-20",73.40,55.58,,,0.00
"CA00220KLML","1999-06-21",71.06,55.40,,,0.00
"CA00220KLML","1999-06-22",64.40,46.40,,,0.00
"CA00220KLML","1999-06-23",53.24,44.60,,,0.00
"CA00220KLML","1999-06-24",50.72,41.36,,,0.00
"CA00220KLML","1999-06-25",54.50,41.36,,,0.00
"CA00220KLML","1999-06-26",62.78,45.14,,,0.00
"CA00220KLML","1999-06-27",61.88,49.82,,,0.00
"CA00220KLML","1999-06-28",63.14,48.38,,,0.00
"CA00220KLML","1999-06-29",64.04,44.42,,,0.00
"CA00220KLML","1999-06-30",55.58,49.64,,,0.00
"CA00220KLML","1999-08-01",62.24,56.30,,,
"CA00220KLML","1999-08-02",66.92,58.64,,,
"CA00220KLML","1999-08-03",65.84,61.34,,,
"CA00220KLML","1999-08-04",68.00,61.52,,,
"CA00220KLML","1999-08-05",64.58,59.00,,,
"CA00220KLML","1999-08-06",59.00,54.32,,,
"CA00220KLML","1999-08-07",57.38,54.32,,,
"CA00220KLML","1999-08-08",56.66,52.52,,,
"CA00220KLML","1999-08-09",56.84,51.26,,,
"CA00220KLML","1999-08-10",59.36,55.04,,,
"CA00220KLML","1999-08-11",59.54,55.76,,,
"CA00220KLML","1999-08-12",62.96,57.74,,,
"CA00220KLML","1999-08-13",63.68,57.74,,,
"CA00220KLML","1999-08-14",61.88,57.92,,,
"CA00220KLML","1999-08-15",62.78,57.20,,,
"CA00220KLML","1999-08-16",67.46,59.36,,,
"CA00220KLML","1999-08-17",67.82,61.16,,,
"CA00220KLML","1999-08-18",64.58,59.54,,,
"CA00220KLML","1999-08-19",67.64,60.62,,,
"CA00220KLML","1999-08-20",67.64,62.96,,,
"CA00220KLML","1999-08-21",67.28,57.20,,,
"CA00220KLML","1999-08-22",61.70,54.14,,,
"CA00220KLML","1999-08-23",62.96,55.40,,,
"CA00220KLML","1999-08-24",60.80,57.92,,,
"CA00220KLML","1999-08-25",60.80,55.40,,,
"CA00220KLML","1999-08-26",56.48,49.82,,,
"CA00220KLML","1999-08-27",53.60,47.84,,,
"CA00220KLML","1999-08-28",60.80,52.88,,,
"CA00220KLML","1999-08-29",60.80,50.36,,,
"CA00220KLML","1999-08-30",50.36,46.76,,,
"CA00220KLML","1999-08-31",50.00,45.86,,,
"CA00220KLML","1999-09-01",57.92,47.48,,,0.00
"CA00220KLML","1999-09-02",52.70,50.00,,,0.00
"CA00220KLML","1999-09-03",57.56,49.10,,,0.00
"CA00220KLML","1999-09-04",61.52,54.14,,,0.00
"CA00220KLML","1999-09-05",58.28,54.14,,,0.00
"CA00220KLML","1999-09-06",57.02,53.06,,,0.00
"CA00220KLML","1999-09-07",54.14,48.92,,,0.00
"CA00220KLML","1999-09-08",55.76,51.80,,,0.00
"CA00220KLML","1999-09-09",57.92,51.80,,,0.00
"CA00220KLML","1999-09-10",55.94,45.14,,,0.00
"CA00220KLML","1999-09-11",48.92,42.26,,,0.00
"CA00220KLML","1999-09-12",53.06,42.08,,,0.00
"CA00220KLML","1999-09-13",58.64,50.36,,,0.00
"CA00220KLML","1999-09-14",59.72,55.22,,,0.00
"CA00220KLML","1999-09-15",56.12,49.46,,,0.00
"CA00220KLML","1999-09-16",51.62,48.20,,,0.00
"CA00220KLML","1999-09-17",48.20,45.32,,,0.00
"CA00220KLML","1999-09-18",50.90,44.96,,,0.00
"CA00220KLML","1999-09-19",60.08,48.02,,,0.00
"CA00220KLML","1999-09-20",60.62,53.78,,,0.00
"CA00220KLML","1999-09-21",54.32,50.18,,,0.00
"CA00220KLML","1999-09-22",55.40,48.20,,,0.00
"CA00220KLML","1999-09-23",56.48,54.68,,,0.00
"CA00220KLML","1999-09-24",55.04,50.72,,,0.00
"CA00220KLML","1999-09-25",52.16,43.34,,,0.00
"CA00220KLML","1999-09-26",47.48,42.26,,,0.00
"CA00220KLML","1999-09-27",47.66,37.40,,,0.00
"CA00220KLML","1999-09-28",46.94,39.56,,,0.00
"CA00220KLML","1999-09-29",39.56,33.98,,,0.00
"CA00220KLML","1999-09-30",36.32,34.34,,,0.00
"CA00220KLML","2000-08-01",67.28,63.86,,,0.00
"CA00220KLML","2000-08-02",69.26,64.58,,,0.00
"CA00220KLML","2000-08-03",69.08,64.58,,,0.00
"CA00220KLML","2000-08-04",64.94,62.42,,,0.00
"CA00220KLML","2000-08-05",68.00,63.14,,,0.00
"CA00220KLML","2000-08-06",67.10,59.36,,,0.00
"CA00220KLML","2000-08-07",62.96,58.10,,,0.00
"CA00220KLML","2000-08-08",60.62,53.42,,,0.00
"CA00220KLML","2000-08-09",59.18,54.68,,,0.00
"CA00220KLML","2000-08-10",57.74,53.96,,,0.00
"CA00220KLML","2000-08-11",59.36,54.50,,,0.00
"CA00220KLML","2000-08-12",60.08,55.94,,,0.00
"CA00220KLML","2000-08-13",60.08,50.00,,,0.00
"CA00220KLML","2000-08-14",61.52,54.50,,,0.00
"CA00220KLML","2000-08-15",57.38,47.66,,,0.00
"CA00220KLML","2000-08-16",56.48,50.00,,,0.00
"CA00220KLML","2000-08-17",58.10,54.14,,,0.00
"CA00220KLML","2000-08-18",59.72,56.48,,,0.00
"CA00220KLML","2000-08-19",61.52,57.20,,,0.00
"CA00220KLML","2000-08-20",60.80,57.38,,,0.00
"CA00220KLML","2000-08-21",61.52,57.74,,,0.00
"CA00220KLML","2000-08-22",63.86,57.38,,,0.00
"CA00220KLML","2000-08-23",61.34,53.96,,,0.00
"CA00220KLML","2000-08-24",53.96,47.66,,,0.00
"CA00220KLML","2000-08-25",56.12,49.64,,,0.00
"CA00220KLML","2000-08-26",55.40,52.88,,,0.00
"CA00220KLML","2000-08-27",53.60,45.32,,,0.00
"CA00220KLML","2000-08-28",48.56,44.96,,,0.00
"CA00220KLML","2000-08-29",46.22,43.16,,,0.00
"CA00220KLML","2000-08-30",47.30,43.52,,,0.00
"CA00220KLML","2000-08-31",47.84,42.98,,,0.00
"CA00220KLML","2000-09-01",50.90,42.98,,,0.00
"CA00220KLML","2000-09-02",57.02,50.54,,,0.00
"CA00220KLML","2000-09-03",58.28,50.18,,,0.00
"CA00220KLML","2000-09-04",59.00,50.36,,,0.00
"CA00220KLML","2000-09-05",55.22,50.18,,,0.00
"CA00220KLML","2000-09-06",54.14,47.30,,,0.00
"CA00220KLML","2000-09-07",61.70,34.16,,,0.00
"CA00220KLML","2000-09-08",56.84,40.82,,,0.00
"CA00220KLML","2000-09-09",50.00,44.06,,,0.00
"CA00220KLML","2000-09-10",44.60,41.90,,,0.00
"CA00220KLML","2000-09-11",47.30,39.74,,,0.00
"CA00220KLML","2000-09-12",49.82,46.04,,,0.00
"CA00220KLML","2000-09-13",52.52,47.12,,,0.00
"CA00220KLML","2000-09-14",58.28,51.80,,,0.00
"CA00220KLML","2000-09-15",56.48,47.84,,,0.00
"CA00220KLML","2000-09-16",51.62,45.68,,,0.00
"CA00220KLML","2000-09-17",50.90,31.64,,,0.00
"CA00220KLML","2000-09-18",49.46,45.14,,,0.00
"CA00220KLML","2000-09-19",45.32,41.18,,,0.00
"CA00220KLML","2000-09-20",42.08,36.68,,,0.00
"CA00220KLML","2000-09-21",42.62,38.30,,,0.00
"CA00220KLML","2000-09-22",49.82,41.36,,,0.00
"CA00220KLML","2000-09-23",51.80,48.02,,,0.00
"CA00220KLML","2000-09-24",49.28,36.14,,,0.00
"CA00220KLML","2000-09-25",36.86,31.46,,,0.00
"CA00220KLML","2000-09-26",40.64,23.18,,,0.00
"CA00220KLML","2000-09-27",42.26,38.48,,,0.00
"CA00220KLML","2000-09-28",42.26,36.32,,,0.00
"CA00220KLML","2000-09-29",43.16,36.32,,,0.00
"CA00220KLML","2000-09-30",43.52,32.54,,,0.00
"CA00220KLML","2001-07-01",60.08,50.36,,,0.00
"CA00220KLML","2001-07-02",55.40,46.94,,,0.00
"CA00220KLML","2001-07-03",57.20,49.64,,,0.00
"CA00220KLML","2001-07-04",64.76,55.40,,,0.00
"CA00220KLML","2001-07-05",57.56,49.28,,,0.00
"CA00220KLML","2001-07-06",49.64,45.32,,,0.00
"CA00220KLML","2001-07-07",49.64,43.16,,,0.00
"CA00220KLML","2001-07-08",53.60,44.06,,,0.00
"CA00220KLML","2001-07-09",55.58,50.00,,,0.00
"CA00220KLML","2001-07-10",64.58,52.88,,,0.00
"CA00220KLML","2001-07-11",58.46,51.08,,,0.00
"CA00220KLML","2001-07-12",58.10,50.90,,,0.00
"CA00220KLML","2001-07-13",67.46,52.88,,,0.00
"CA00220KLML","2001-07-14",59.90,51.08,,,0.00
"CA00220KLML","2001-07-15",55.76,50.54,,,0.00
"CA00220KLML","2001-07-16",55.58,52.52,,,0.00
"CA00220KLML","2001-07-17",58.28,53.78,,,0.00
"CA00220KLML","2001-07-18",57.74,53.60,,,0.00
"CA00220KLML","2001-07-19",57.92,55.40,,,0.00
"CA00220KLML","2001-07-20",56.84,53.96,,,0.00
"CA00220KLML","2001-07-21",58.64,53.96,,,0.00
"CA00220KLML","2001-07-22",64.04,57.38,,,0.00
"CA00220KLML","2001-07-23",66.38,58.46,,,0.00
"CA00220KLML","2001-07-24",66.20,60.08,,,0.00
"CA00220KLML","2001-07-25",71.78,62.24,,,0.00
"CA00220KLML","2001-07-26",68.18,62.42,,,0.00
"CA00220KLML","2001-07-27",67.82,62.96,,,0.00
"CA00220KLML","2001-07-28",66.56,62.96,,,0.00
"CA00220KLML","2001-07-29",68.90,62.78,,,0.00
"CA00220KLML","2001-07-30",68.36,63.14,,,0.00
"CA00220KLML","2001-07-31",64.40,59.36,,,0.00
"CA00220KLML","2001-08-01",64.40,61.34,,,0.00
"CA00220KLML","2001-08-02",64.22,59.54,,,0.00
"CA00220KLML","2001-08-03",61.52,56.48,,,0.00
"CA00220KLML","2001-08-04",63.14,59.90,,,0.00
"CA00220KLML","2001-08-05",62.96,57.74,,,0.00
"CA00220KLML","2001-08-06",65.66,58.64,,,0.00
"CA00220KLML","2001-08-07",61.70,54.86,,,0.00
"CA00220KLML","2001-08-08",63.32,55.76,,,0.00
"CA00220KLML","2001-08-09",64.40,59.90,,,0.00
"CA00220KLML","2001-08-10",64.04,55.58,,,0.00
"CA00220KLML","2001-08-11",60.44,56.84,,,0.00
"CA00220KLML","2001-08-12",64.94,58.10,,,0.00
"CA00220KLML","2001-08-13",65.30,60.26,,,0.00
"CA00220KLML","2001-08-14",63.32,57.20,,,0.00
"CA00220KLML","2001-08-15",67.28,62.60,,,0.00
"CA00220KLML","2001-08-16",67.64,61.16,,,0.00
"CA00220KLML","2001-08-17",73.40,64.22,,,0.00
"CA00220KLML","2001-08-18",64.76,52.34,,,0.00
"CA00220KLML","2001-08-19",52.34,49.28,,,0.00
"CA00220KLML","2001-08-20",50.90,48.56,,,0.00
"CA00220KLML","2001-08-21",50.36,46.40,,,0.00
"CA00220KLML","2001-08-22",54.86,48.92,,,0.00
"CA00220KLML","2001-08-23",56.48,52.70,,,0.00
"CA00220KLML","2001-08-24",55.94,52.16,,,0.00
"CA00220KLML","2001-08-25",53.06,51.44,,,0.00
"CA00220KLML","2001-08-26",53.24,48.38,,,0.00
"CA00220KLML","2001-08-27",56.84,53.24,,,0.00
"CA00220KLML","2001-08-28",56.48,53.24,,,0.00
"CA00220KLML","2001-08-29",58.46,52.52,,,0.00
"CA00220KLML","2001-08-30",59.72,54.32,,,0.00
"CA00220KLML","2001-08-31",59.90,56.12,,,0.00
"CA00220KLML","2001-09-01",59.90,56.84,,,0.00
"CA00220KLML","2001-09-02",62.06,55.22,,,0.00
"CA00220KLML","2001-09-03",58.82,54.50,,,0.00
"CA00220KLML","2001-09-04",54.86,51.98,,,0.00
"CA00220KLML","2001-09-05",55.04,52.34,,,0.00
"CA00220KLML","2001-09-06",55.04,52.34,,,0.00
"CA00220KLML","2001-09-07",56.12,53.78,,,0.00
"CA00220KLML","2001-09-08",55.76,50.72,,,0.00
"CA00220KLML","2001-09-09",53.06,49.46,,,0.00
"CA00220KLML","2001-09-10",51.44,48.20,,,0.00
"CA00220KLML","2001-09-11",55.04,50.18,,,0.00
"CA00220KLML","2001-09-12",56.12,51.08,,,0.00
"CA00220KLML","2001-09-13",59.00,51.80,,,0.00
"CA00220KLML","2001-09-14",61.52,54.14,,,0.00
"CA00220KLML","2001-09-15",57.38,51.44,,,0.00
"CA00220KLML","2001-09-16",55.40,51.80,,,0.00
"CA00220KLML","2001-09-17",54.68,50.90,,,0.00
"CA00220KLML","2001-09-18",52.52,45.86,,,0.00
"CA00220KLML","2001-09-19",48.56,41.90,,,0.00
"CA00220KLML","2001-09-20",47.84,44.24,,,0.00
"CA00220KLML","2001-09-21",48.56,43.88,,,0.00
"CA00220KLML","2001-09-22",52.88,42.62,,,0.00
"CA00220KLML","2001-09-23",60.98,51.26,,,0.00
"CA00220KLML","2001-09-24",55.58,51.62,,,0.00
"CA00220KLML","2001-09-25",58.10,52.16,,,0.00
"CA00220KLML","2001-09-26",56.30,52.34,,,0.00
"CA00220KLML","2001-09-27",58.10,51.44,,,0.00
"CA00220KLML","2001-09-28",53.06,49.82,,,0.00
"CA00220KLML","2001-09-29",51.26,48.02,,,0.00
"CA00220KLML","2001-09-30",50.00,32.00,,,0.00
